Regional Weather Roundup
Issued by NWS

Home | Current Version | Previous Version | Text Only | Print | Product List | Glossary Off
Versions: 1 2 3 4 5 6 7 8 9 10 11 12 13 14 15 16 17 18 19 20 21 22 23 24 25 26 27 28 29 30 31 32 33 34 35 36 37 38 39 40 41 42 43 44 45 46 47 48 49 50

000
ASUS43 KOAX 190710
RWRNE

WEATHER ROUNDUP FOR NEBRASKA
NATIONAL WEATHER SERVICE OMAHA NE
200 AM CDT FRI SEP 19 2014

NOTES: SATELLITE DATA IS BEING USED TO AUGMENT CLOUD COVER ABOVE
       12000 FEET.
       "FAIR" INDICATES FEW OR NO CLOUDS BELOW 12,000 FEET WITH NO
       SIGNIFICANT WEATHER AND/OR OBSTRUCTIONS TO VISIBILITY.

  * THESE STATIONS DO NOT REPORT WEATHER SUCH AS RAIN...SNOW OR FOG.

NEZ001>004-019>022-054>056-190800-
NEBRASKA PANHANDLE

CITY           SKY/WX    TMP DP  RH WIND       PRES   REMARKS
SCOTTSBLUFF    CLEAR     62  59  90 E8        29.85F
ALLIANCE       CLEAR     60  59  96 S9        29.84F
CHADRON        CLEAR     69  60  73 W7G17     29.74F
KIMBALL        CLEAR     60  49  69 SW10      29.91F
SIDNEY         CLEAR     61  53  75 SW13      29.91F
$$

NEZ057>060-069>072-079>082-190800-
SOUTHWEST NEBRASKA

CITY           SKY/WX    TMP DP  RH WIND       PRES   REMARKS
NORTH PLATTE   FOG       59  58  96 SE7       29.87F VSB 1/2
IMPERIAL       CLEAR     59  57  93 SE6       29.88F
LEXINGTON      CLEAR     64  64  97 SE13      29.88F
MCCOOK         FOG       59  58  96 E7        29.88F VSB<1/4
OGALLALA       MOCLDY    61  61  97 CALM      29.88F FOG
$$

NEZ005>010-023>029-035>040-094-190800-
NORTH CENTRAL NEBRASKA

CITY           SKY/WX    TMP DP  RH WIND       PRES   REMARKS
VALENTINE      PTCLDY    64  62  93 S7        29.80F
AINSWORTH      CLOUDY    65  64  94 S15       29.82F
BROKEN BOW     CLEAR     63  61  93 S9        29.87F
O`NEILL        CLOUDY    67  65  92 S16G23    29.85F
ORD            CLOUDY    66  63  90 S16       29.87S
THEDFORD       PTCLDY    62  61  96 SE6       29.86F
$$

NEZ041-046>049-061>064-073>077-083>087-190800-
SOUTH CENTRAL NEBRASKA

CITY           SKY/WX    TMP DP  RH WIND       PRES   REMARKS
GRAND ISLAND   CLOUDY    65  63  93 S18G26    29.92F FOG
AURORA         CLOUDY    63  63 100 S15G23    29.94S FOG
HASTINGS       CLOUDY    66  61  84 S15       29.93S
HEBRON         CLOUDY    66  62  87 S14       29.96S
HOLDREGE       CLEAR     65  63  93 S13G21    29.90F
KEARNEY *      CLOUDY    66  63  88 SE16G26   29.91F
YORK           CLOUDY    63  63 100 S13       29.95F FOG
$$

NEZ011>018-030>034-042>045-190800-
NORTHEAST NEBRASKA

CITY           SKY/WX    TMP DP  RH WIND       PRES   REMARKS
NORFOLK        CLOUDY    62  60  93 S16G24    29.92S
ALBION         DRIZZLE   63  61  93 S15G23    29.91F
BLAIR          CLOUDY    62  59  89 S9        29.98S
COLUMBUS *     CLOUDY    63  59  88 S13G18    29.96S
FREMONT        PTCLDY    63  60  88 SE10      29.97S
TEKAMAH        MOCLDY    61  58  90 SE8       29.97S
WAYNE          CLOUDY    62  59  88 S21G29    29.93S
$$

NEZ050>053-065>068-078-088>093-190800-
SOUTHEAST NEBRASKA

CITY           SKY/WX    TMP DP  RH WIND       PRES   REMARKS
LINCOLN        CLOUDY    64  59  83 S13       29.97F
OMAHA EPPLEY   CLEAR     61  57  87 SE10      29.99S
BEATRICE       MOCLDY    62  60  94 S8        29.97F FOG
FALLS CITY     MOCLDY    58  57  97 SE3       30.00S FOG
NEBRASKA CITY  CLOUDY    60  59  97 S8        30.00S FOG
PLATTSMOUTH    MOCLDY    60  58  92 SE8       29.99S FOG
$$

NEZ044-045-051>053-067-190800-
OMAHA AREA

CITY           SKY/WX    TMP DP  RH WIND       PRES   REMARKS
OMAHA EPPLEY   CLEAR     61  57  87 SE10      29.99S
BLAIR          CLOUDY    62  59  89 S9        29.98S
FREMONT        PTCLDY    63  60  88 SE10      29.97S
MILLARD        PTCLDY    61  59  92 SE5       29.98S FOG
OFFUTT AFB     CLEAR     60  60 100 SE8       29.99S
PLATTSMOUTH    MOCLDY    60  58  92 SE8       29.99S FOG
WAHOO          PTSUNNY   63  59  87 S12       29.97S
$$



USA.gov is the U.S. government's official web portal to all federal, state and local government web resources and services.